User: anonymous   Login
Location: Unspecified
(0.0000°N, 0.0000°E)
Time: 07:47:54
(UTC+00:00)
Language:

ONEWEB-0582 - Orbit

View from above orbital plane
View from above orbital plane
View from above satellite
View from above satellite

Ground track
Ground track

The orbit is defined by the following mean orbital elements,

1 54649U          26145.57369427 +.00000000 +00000-0 -56000-4 0 00008
2 54649  87.9252 248.4735 0002421  96.6982 263.4427 13.21825194    09
Epoch (UTC): 25 May 2026 13:46:07
Eccentricity: 0.0002421
inclination: 87.9252°
perigee height: 1176 km
apogee height: 1180 km
right ascension of ascending node: 248.4735°
argument of perigee: 96.6982°
revolutions per day: 13.21825194
mean anomaly at epoch: 263.4427°

The dashed part of the orbit path shows where the satellite is in the earth's shadow,  

DLR